Location: Most
(50.5133°N, 13.6207°E)
Time: 11:23:46
(UTC+01:00)

ISS - Pass Details

Date: 22 March 2017
Orbit: 399 x 409 km, 51.6° (Epoch: 23 March)

Event Time Altitude Azimuth Distance (km) Brightness Sun altitude
Exits shadow 05:19:38 10° 244° (WSW) 1,487 -1.6 -7.8°
Reaches altitude 10° 05:19:44 10° 242° (WSW) 1,472 -1.6 -7.8°
Maximum altitude 05:20:46 11° 224° (SW) 1,404 -1.6 -7.6°
Drops below altitude 10° 05:21:47 10° 206° (SSW) 1,469 -1.3 -7.5°
Sets 05:25:08 0° 169° (S) 2,324 0.0 -6.9°
